[[{"header":{"parameterUnit":"m.s-1","parameterCategory":1,"la1":30.2991,"la2":30.254,"lo1":-89.0895,"lo2":-89.0444,"dy":0.0017,"dx":0.0017,"nx":28,"ny":28,"refTime":"2023-10-22T09:00:00:Z","depth":0,"parameterNumber":2,"parameterNumberName":"U-component_of_WINDS"},"data":[0,0,0,0,0,0,0,0,0,0,0,0,0,0,0,0,0,0,0,0,0,0,0,0,0,0,0,0,0,0,0,0,0,0,0,0,0,0,0,0,0,0,0,0,0,0,0,0,0,0,0,0,0,0,0,0,0,0,0.5629,0.563,0,0.5663,0.5664,0.5664,0.5698,0.5699,0.5699,0.57,0.5735,0.5735,0.5736,0,0,0,0,0,0,0,0,0,0,0,0,0,0.5595,0.5595,0.5629,0.563,0.563,0.5663,0.5664,0.5664,0.5698,0.5699,0.5699,0.57,0.5735,0.5735,0.5736,0,0,0,0,0,0,0,0,0,0,0,0,0,0.5617,0.5595,0.5629,0.5651,0.5653,0.5663,0.5664,0.5664,0.5698,0.5699,0.57,0.57,0.5734,0.5735,0.5736,0.5727,0,0,0.5738,0.5738,0,0,0,0,0,0,0,0,0.5616,0.5618,0.5647,0.565,0.5652,0.5677,0.5664,0.5685,0.5698,0.5681,0.57,0.5701,0.5715,0.5717,0.5722,0.5728,0.573,0.5738,0.5739,0.5739,0.5739,0,0,0,0,0,0,0,0.5614,0.5617,0.5643,0.5648,0.5651,0.566,0.5664,0.5669,0.5694,0.5683,0.5685,0.5689,0.5717,0.5722,0.5723,0.573,0.5738,0.5739,0.5739,0.574,0.5732,0.5731,0,0,0,0,0,0,0.5609,0.5616,0.5642,0.5644,0.5635,0.566,0.5664,0.5669,0.5694,0.5698,0.5688,0.569,0.572,0.5722,0.5725,0.5716,0.5739,0.574,0.574,0.5732,0.5731,0.5731,0,0,0,0,0,0,0.5608,0.5611,0.564,0.563,0.5635,0.5659,0.5664,0.5669,0.5674,0.5698,0.5703,0.5689,0.5721,0.5724,0.5726,0.5718,0.574,0.5741,0.5733,0.5732,0.5731,0.5698,0,0,0,0,0,0,0.5607,0.5611,0.5607,0.563,0.5635,0.5641,0.5664,0.5669,0.5675,0.5678,0.57,0.5704,0.5721,0.5725,0.5727,0.5719,0.5741,0.5734,0.5733,0.5731,0.57,0.5696,0.5693,0,0,0,0,0,0.5606,0.5596,0.5607,0.561,0.5631,0.564,0.5643,0.5663,0.5674,0.5671,0.5687,0.5703,0.5719,0.5725,0.5727,0.572,0.5735,0.5733,0.5732,0.5702,0.5697,0.5693,0,0,0,0,0,0,0.5572,0.56,0.5612,0.5609,0.5622,0.5646,0.5642,0.5657,0.5667,0.567,0.5695,0.5699,0.5699,0.571,0.5716,0.5713,0.5729,0.5728,0.5705,0.5701,0.5697,0.5694,0.5742,0,0,0,0,0,0.5564,0.5568,0.5593,0.5589,0.5594,0.5617,0.5622,0.5636,0.5651,0.5656,0.5672,0.5685,0.5693,0.5698,0.5707,0.5702,0.5708,0.5698,0.5695,0.5692,0.569,0.5689,0.5686,0.5726,0.5726,0.5726,0,0,0.5548,0.5564,0.5565,0.5582,0.5594,0.5598,0.5621,0.5625,0.5629,0.5657,0.566,0.5672,0.5689,0.5688,0.5688,0.5697,0.5681,0.569,0.5687,0.5687,0.5687,0.5684,0.568,0.5725,0.5725,0.5725,0,0,0.552,0.5533,0.5531,0.5542,0.556,0.5575,0.5575,0.5596,0.5606,0.5609,0.5631,0.5636,0.5649,0.566,0.5667,0.5646,0.5661,0.5648,0.5628,0.5627,0.5624,0.5621,0.5613,0.561,0.5646,0.5646,0.5646,0,0.5498,0.5505,0.5528,0.553,0.5537,0.5563,0.5562,0.5572,0.5591,0.5595,0.5605,0.5622,0.5635,0.5638,0.5633,0.5638,0.5638,0.5645,0.5623,0.562,0.5618,0.5611,0.5608,0.5645,0.5645,0.5645,0.5645,0,0.5477,0.5482,0.5478,0.5496,0.5503,0.5503,0.5526,0.5531,0.5545,0.556,0.5563,0.558,0.5593,0.5595,0.5609,0.5599,0.5604,0.5618,0.5634,0.5612,0.5606,0.5603,0.5642,0.5643,0.5643,0.5644,0,0,0.5428,0.5459,0.5457,0.5466,0.5488,0.5492,0.5494,0.5507,0.551,0.5523,0.5525,0.5536,0.5549,0.5558,0.5574,0.5573,0.5555,0.5587,0.5587,0.558,0.5546,0.5535,0.5531,0.5565,0.5565,0.5565,0.5544,0,0.5404,0.5408,0.5429,0.5428,0.5433,0.5458,0.546,0.5474,0.5488,0.5495,0.5511,0.5518,0.5535,0.554,0.554,0.5557,0.5548,0.5558,0.5568,0.5568,0.5562,0.5528,0.5516,0.5496,0.5542,0.5541,0.5541,0,0.5376,0.5387,0.5386,0.5409,0.5412,0.5413,0.5426,0.5433,0.5449,0.546,0.5469,0.5487,0.5491,0.5507,0.5514,0.552,0.5526,0.5535,0.5534,0.5535,0.5552,0.5527,0.549,0.5486,0.5537,0.5538,0.5538,0,0.534,0.5355,0.5356,0.5363,0.539,0.539,0.5401,0.5418,0.5425,0.5437,0.5441,0.5454,0.5461,0.547,0.5491,0.5501,0.5495,0.5513,0.5504,0.5503,0.5501,0.55,0.5463,0.5505,0.5505,0.5505,0.5505,0,0.531,0.5309,0.5341,0.5341,0.5341,0.5365,0.5364,0.5377,0.5393,0.5397,0.542,0.5424,0.5452,0.5459,0.5476,0.5478,0.5481,0.549,0.5494,0.5487,0.5486,0.5491,0.5492,0.5504,0.5505,0.5505,0.5505,0,0.5269,0.5291,0.5294,0.5319,0.5325,0.5323,0.5345,0.5347,0.5363,0.5368,0.5371,0.5396,0.5406,0.5428,0.5443,0.5455,0.5453,0.5461,0.5447,0.545,0.5439,0.544,0.5403,0.5399,0.5444,0.5444,0.5443,0,0.5249,0.5248,0.5273,0.5278,0.5288,0.5295,0.5302,0.5326,0.5333,0.5352,0.5352,0.5363,0.5374,0.5388,0.5408,0.542,0.5429,0.5415,0.543,0.5424,0.5428,0.5427,0.5428,0.5411,0.541,0.541,0.5409,0,0.521,0.5221,0.523,0.5243,0.525,0.5262,0.5274,0.5277,0.5305,0.5311,0.5321,0.5329,0.5345,0.5356,0.5372,0.5384,0.5401,0.5404,0.5403,0.5396,0.5387,0.5391,0.5437,0.5405,0.5405,0.5406,0.5406,0.5406,0.5179,0.5179,0.5197,0.5207,0.5219,0.523,0.5234,0.525,0.5259,0.5274,0.5289,0.5297,0.5315,0.5338,0.5348,0.5356,0.5365,0.5363,0.5362,0.5361,0.5358,0.5387,0.5359,0.5359,0.5359,0.536,0.536,0,0.5141,0.5154,0.5162,0.5179,0.5187,0.5203,0.5219,0.5224,0.5231,0.5246,0.5256,0.5268,0.5279,0.5301,0.5314,0.5316,0.5324,0.5319,0.5318,0.5321,0.5349,0.5349,0.5312,0.5312,0.5312,0.5312,0.5312,0.5312,0.5122,0.5124,0.5137,0.5146,0.516,0.5168,0.5176,0.5187,0.5199,0.5211,0.522,0.5234,0.5252,0.5267,0.5278,0.5285,0.5288,0.528,0.5288,0.5314,0.5319,0.5323,0.5323,0.528,0.528,0.5259,0.5259,0.5259]},{"header":{"parameterUnit":"m.s-1","parameterCategory":1,"la1":30.2991,"la2":30.254,"lo1":-89.0895,"lo2":-89.0444,"dy":0.0017,"dx":0.0017,"nx":28,"ny":28,"refTime":"2023-10-22T09:00:00:Z","depth":0,"parameterNumber":3,"parameterNumberName":"V-component_of_WINDS"},"data":[0,0,0,0,0,0,0,0,0,0,0,0,0,0,0,0,0,0,0,0,0,0,0,0,0,0,0,0,0,0,0,0,0,0,0,0,0,0,0,0,0,0,0,0,0,0,0,0,0,0,0,0,0,0,0,0,0,0,-0.6271,-0.6271,0,-0.625,-0.6249,-0.6249,-0.6227,-0.6227,-0.6226,-0.6226,-0.6203,-0.6202,-0.6202,0,0,0,0,0,0,0,0,0,0,0,0,0,-0.6292,-0.6292,-0.6271,-0.6271,-0.6271,-0.625,-0.6249,-0.6249,-0.6227,-0.6227,-0.6226,-0.6226,-0.6203,-0.6202,-0.6202,0,0,0,0,0,0,0,0,0,0,0,0,0,-0.6278,-0.6292,-0.6271,-0.6257,-0.6256,-0.625,-0.6249,-0.6249,-0.6227,-0.6227,-0.6226,-0.6226,-0.6203,-0.6202,-0.6202,-0.6208,0,0,-0.62,-0.62,0,0,0,0,0,0,0,0,-0.6279,-0.6277,-0.626,-0.6258,-0.6256,-0.6241,-0.6248,-0.6235,-0.6227,-0.6238,-0.6226,-0.6225,-0.6215,-0.6214,-0.6211,-0.6207,-0.6206,-0.62,-0.62,-0.62,-0.6199,0,0,0,0,0,0,0,-0.628,-0.6278,-0.6263,-0.6259,-0.6257,-0.6252,-0.6249,-0.6246,-0.6229,-0.6237,-0.6235,-0.6233,-0.6215,-0.6211,-0.621,-0.6205,-0.62,-0.62,-0.6199,-0.6199,-0.6206,-0.6206,0,0,0,0,0,0,-0.6283,-0.6279,-0.6263,-0.6262,-0.6267,-0.6252,-0.6249,-0.6246,-0.6229,-0.6226,-0.6233,-0.6232,-0.6212,-0.6211,-0.6209,-0.6215,-0.62,-0.6199,-0.6199,-0.6205,-0.6206,-0.6206,0,0,0,0,0,0,-0.6284,-0.6282,-0.6264,-0.627,-0.6268,-0.6252,-0.6249,-0.6246,-0.6243,-0.6227,-0.6224,-0.6233,-0.6212,-0.621,-0.6208,-0.6214,-0.6199,-0.6198,-0.6204,-0.6205,-0.6206,-0.6228,0,0,0,0,0,0,-0.6285,-0.6282,-0.6285,-0.627,-0.6267,-0.6264,-0.6249,-0.6246,-0.6242,-0.624,-0.6226,-0.6223,-0.6212,-0.6209,-0.6208,-0.6213,-0.6198,-0.6204,-0.6205,-0.6206,-0.6226,-0.6229,-0.6231,0,0,0,0,0,-0.6285,-0.6291,-0.6285,-0.6283,-0.627,-0.6265,-0.6263,-0.625,-0.6243,-0.6245,-0.6235,-0.6223,-0.6214,-0.6209,-0.6208,-0.6213,-0.6203,-0.6205,-0.6206,-0.6225,-0.6229,-0.6231,0,0,0,0,0,0,-0.6306,-0.6289,-0.6282,-0.6283,-0.6276,-0.6261,-0.6263,-0.6254,-0.6247,-0.6246,-0.6229,-0.6226,-0.6227,-0.622,-0.6215,-0.6218,-0.6207,-0.6208,-0.6223,-0.6226,-0.6228,-0.623,-0.6198,0,0,0,0,0,-0.6311,-0.6308,-0.6294,-0.6296,-0.6293,-0.6279,-0.6276,-0.6267,-0.6258,-0.6254,-0.6244,-0.6236,-0.6231,-0.6228,-0.6222,-0.6225,-0.6222,-0.6228,-0.6231,-0.6233,-0.6234,-0.6235,-0.6238,-0.621,-0.621,-0.621,0,0,-0.632,-0.6311,-0.631,-0.63,-0.6293,-0.6291,-0.6276,-0.6274,-0.6272,-0.6254,-0.6252,-0.6245,-0.6234,-0.6235,-0.6235,-0.6229,-0.6241,-0.6234,-0.6236,-0.6236,-0.6237,-0.6239,-0.6242,-0.621,-0.621,-0.621,0,0,-0.6337,-0.6329,-0.6331,-0.6325,-0.6315,-0.6305,-0.6306,-0.6293,-0.6287,-0.6285,-0.6272,-0.6269,-0.6261,-0.6254,-0.625,-0.6265,-0.6254,-0.6263,-0.6276,-0.6278,-0.628,-0.6282,-0.6288,-0.629,-0.6264,-0.6264,-0.6264,0,-0.635,-0.6346,-0.6333,-0.6332,-0.6328,-0.6313,-0.6314,-0.6308,-0.6297,-0.6294,-0.6288,-0.6278,-0.627,-0.6269,-0.6273,-0.627,-0.627,-0.6265,-0.6281,-0.6283,-0.6284,-0.6289,-0.6292,-0.6265,-0.6265,-0.6265,-0.6265,0,-0.6363,-0.6361,-0.6363,-0.6353,-0.635,-0.635,-0.6337,-0.6335,-0.6326,-0.6318,-0.6316,-0.6306,-0.6299,-0.6298,-0.6289,-0.6296,-0.6293,-0.6284,-0.6273,-0.6288,-0.6293,-0.6295,-0.6267,-0.6267,-0.6266,-0.6266,0,0,-0.6391,-0.6375,-0.6376,-0.6372,-0.636,-0.6357,-0.6357,-0.6351,-0.6349,-0.6342,-0.6341,-0.6335,-0.6327,-0.6322,-0.6313,-0.6314,-0.6327,-0.6305,-0.6305,-0.631,-0.6335,-0.6342,-0.6344,-0.632,-0.6321,-0.6321,-0.6336,0,-0.6406,-0.6405,-0.6393,-0.6396,-0.6394,-0.6379,-0.6379,-0.6371,-0.6364,-0.636,-0.6351,-0.6348,-0.6337,-0.6334,-0.6335,-0.6326,-0.6332,-0.6324,-0.632,-0.632,-0.6323,-0.6347,-0.6354,-0.6368,-0.6338,-0.6338,-0.6338,0,-0.6422,-0.6417,-0.6419,-0.6408,-0.6407,-0.6407,-0.64,-0.6397,-0.6389,-0.6383,-0.6378,-0.6367,-0.6366,-0.6356,-0.6354,-0.6349,-0.6347,-0.6342,-0.6342,-0.6341,-0.633,-0.6346,-0.6373,-0.6375,-0.6341,-0.6341,-0.634,0,-0.6443,-0.6436,-0.6437,-0.6434,-0.642,-0.6421,-0.6415,-0.6406,-0.6403,-0.6397,-0.6395,-0.6389,-0.6386,-0.6381,-0.6369,-0.6363,-0.6369,-0.6358,-0.6364,-0.6365,-0.6366,-0.6366,-0.6392,-0.6365,-0.6365,-0.6365,-0.6365,0,-0.646,-0.6462,-0.6446,-0.6447,-0.6449,-0.6435,-0.6438,-0.6431,-0.6423,-0.6422,-0.6408,-0.6407,-0.6392,-0.6389,-0.638,-0.638,-0.6379,-0.6374,-0.6371,-0.6375,-0.6376,-0.6373,-0.6372,-0.6365,-0.6365,-0.6365,-0.6365,0,-0.6484,-0.6473,-0.6473,-0.6461,-0.6458,-0.646,-0.6449,-0.6449,-0.6441,-0.6439,-0.6438,-0.6425,-0.6421,-0.6409,-0.6402,-0.6395,-0.6399,-0.6394,-0.6402,-0.64,-0.6408,-0.6407,-0.6433,-0.6436,-0.6406,-0.6407,-0.6407,0,-0.6496,-0.6497,-0.6485,-0.6484,-0.6479,-0.6477,-0.6474,-0.6461,-0.6458,-0.6449,-0.645,-0.6446,-0.6441,-0.6436,-0.6425,-0.642,-0.6415,-0.6425,-0.6414,-0.6418,-0.6415,-0.6416,-0.6416,-0.6427,-0.6427,-0.6427,-0.6428,0,-0.6518,-0.6513,-0.6509,-0.6504,-0.6501,-0.6497,-0.6491,-0.649,-0.6476,-0.6474,-0.647,-0.6467,-0.646,-0.6456,-0.6449,-0.6443,-0.6433,-0.6431,-0.6432,-0.6436,-0.6441,-0.6439,-0.6408,-0.643,-0.643,-0.643,-0.643,-0.643,-0.6536,-0.6537,-0.6529,-0.6525,-0.652,-0.6516,-0.6515,-0.6507,-0.6504,-0.6498,-0.649,-0.6488,-0.648,-0.647,-0.6464,-0.6462,-0.6457,-0.6458,-0.6459,-0.646,-0.6462,-0.6441,-0.6461,-0.6461,-0.6461,-0.646,-0.646,0,-0.6558,-0.6552,-0.6549,-0.6542,-0.654,-0.6531,-0.6525,-0.6523,-0.6521,-0.6515,-0.6511,-0.6507,-0.6503,-0.6493,-0.6488,-0.6488,-0.6483,-0.6487,-0.6487,-0.6486,-0.6467,-0.6466,-0.6491,-0.6491,-0.6491,-0.6491,-0.6491,-0.6491,-0.6569,-0.657,-0.6564,-0.6562,-0.6556,-0.6554,-0.6551,-0.6547,-0.6542,-0.6538,-0.6535,-0.6529,-0.6521,-0.6515,-0.6511,-0.6508,-0.6507,-0.6512,-0.6508,-0.649,-0.6487,-0.6484,-0.6484,-0.6512,-0.6512,-0.6527,-0.6527,-0.6527]}]]